DELTA 1 DEB, 10869

Orbit data source: Space-Track

DELTA 1 DEB, 10869 is space debris in SSO originally from a launch on Thu, 29 Jul 1976 UTC launched from the Air Force Western Test Range (AFWTR). Debris objects in space refer to the collection of defunct objects orbiting the Earth. Examples of debris include non-operational satellites, rocket bodies, and fragments generated from explosions, collisions, or faulty payload assembly.

Loading next visibility...
Identifier
10869, 1976-077CX
Orbit
SSO
Country
Flag of USUS
Related business
Manufacturer
Unknown
Mission
Spacecraft
Bus & Motor
Unknown
Mass
Unknown
Launch date (UTC)
1976-07-29 (50 years ago)
Launch vehicle
Unknown
Launch site
Air Force Western Test Range (AFWTR)
Object type
Payload
Rocket body
Debris
Shape & HBR
Unknown shape, 0.1 m
Radar Cross Section
Medium (>0.1 m² and <1 m²)

Expand to show TLE details & history
Last TLE update: 18 hours ago

TLE from 18 hours ago
0 DELTA 1 DEB
1 10869U 76077CX  26255.29382282  .00000051  00000-0  70244-3 0  9993
2 10869 102.2841  28.8548 0026953 353.9343  35.4197 12.43476124272154
Epoch: 2026-09-12T07:03Z
TLE epoch observation values (Epoch: 2026-09-12T07:03:06.291Z)
Latitude
28.83798°
Longitude
-75.07836°
Altitude
1,477.885 km
Speed
7.135 km/s
True Right ascension
01h 28m 00s
True Declination
28° 42' 22"
Sunlit
Object was in full shadow at epoch
Visualization orbit readout
Latitude
Unknown
Longitude
Unknown
Altitude
Unknown
Speed
Unknown
Apparent Right ascension
Unknown
Apparent Declination
Unknown
Sunlit
N/A
Visualization observer readout
Local Sidereal Time
17:32:58
Azimuth
Unknown
Elevation
Unknown
Doppler factor
Unknown
Orbital elements
Apogee altitude
1,510.695 km
Perigee altitude
1,468.283 km
Semi-major axis
7,867.626 km
Eccentricity
0.0027
Inclination
102.2841°
RAAN
28.8548°
Arg. of periapsis
353.9343°
True anomaly
35.5992°
Mean anomaly
35.4197°
Eccentric anomaly
35.5094°
Mean motion
3.11012 °/min
Orbital period
115.75 mins
BSTAR
0.00070244
Loading maneuver chart data...
Computing Atmospheric mass density...
Loading historical data...
Loading historical data...
Loading historical data...
Loading historical data...
Loading historical data...
Loading historical data...
Loading historical data...

Documentation

Showing up to 5 results
|